Orbital Elements at Epoch 2459000.5 (2020-May-31.0) TDB
Reference: JPL 16 (heliocentric ecliptic J2000)
Element | Value | Uncertainty (1-sigma) | Units |
e | .06505584714738832 | 6.4117e-08 | |
a | 3.215636907851148 | 3.4621e-08 | au |
q | 3.006440924692483 | 2.1505e-07 | au |
i | 12.27005120098581 | 5.9334e-06 | deg |
node | 30.97559338718444 | 2.5311e-05 | deg |
peri | 294.1912923321876 | 4.6567e-05 | deg |
M | 60.71120313407191 | 3.9501e-05 | deg |
tp | 2458645.306284897206 (2019-Jun-10.80628490) | 0.00023209 | TDB |
period | 2106.196728709594 5.77 | 3.4015e-05 9.313e-08 | d yr |
n | .1709242043218639 | 2.7604e-09 | deg/d |
Q | 3.424832891009812 | 3.6874e-08 | au |
|
| | Orbit Determination Parameters
Additional Information
|